This is the latest recevied weather packets stored in our database for station/object KC1TEM-13. If no packets are shown the sender has not sent any weather packets the latest 10 day(s).
| Time | Temp. | Humidity | Pressure | Rain* | Wind** | Luminosity | Snow |
|---|---|---|---|---|---|---|---|
| 1777735292 | 10.56° C | 78% | 1012.3 hPa | 0 mm | - | 267 W/m² | - |
| 1777734990 | 10.56° C | 81% | 1012.4 hPa | 0 mm | - | 349 W/m² | - |
| 1777734687 | 10° C | 82% | 1012.2 hPa | 0 mm | - | 696 W/m² | - |
| 1777734384 | 10° C | 84% | 1012.4 hPa | 0 mm | - | 421 W/m² | - |
| 1777734080 | 9.44° C | 85% | 1012.3 hPa | 0 mm | - | 274 W/m² | - |
| 1777733777 | 9.44° C | 83% | 1012.5 hPa | 0 mm | - | 364 W/m² | - |
| 1777733474 | 9.44° C | 84% | 1012.6 hPa | 0 mm | - | 246 W/m² | - |
| 1777733169 | 8.89° C | 87% | 1012.4 hPa | 0 mm | - | 396 W/m² | - |
| 1777732866 | 8.33° C | 87% | 1012.8 hPa | 0 mm | - | 356 W/m² | - |
| 1777732563 | 8.33° C | 86% | 1012.7 hPa | 0 mm | - | 284 W/m² | - |
| 1777732261 | 8.33° C | 89% | 1012.9 hPa | 0 mm | - | 274 W/m² | - |
| 1777731958 | 8.33° C | 90% | 1012.9 hPa | 0 mm | - | 227 W/m² | - |
| 1777731654 | 7.78° C | 89% | 1013 hPa | 0 mm | - | 173 W/m² | - |
| 1777731352 | 7.78° C | 90% | 1013 hPa | 0 mm | - | 160 W/m² | - |
| 1777731049 | 7.78° C | 90% | 1013 hPa | 0 mm | - | 188 W/m² | - |
| 1777730748 | 7.78° C | 90% | 1012.9 hPa | 0 mm | - | 160 W/m² | - |
| 1777730444 | 7.22° C | 90% | 1013 hPa | 0 mm | - | 181 W/m² | - |
| 1777730139 | 7.22° C | 91% | 1012.9 hPa | 0 mm | - | 150 W/m² | - |
| 1777729837 | 7.22° C | 91% | 1012.7 hPa | 0 mm | - | 140 W/m² | - |
| 1777729533 | 7.22° C | 92% | 1012.9 hPa | 0 mm | - | 116 W/m² | - |
| 1777729230 | 7.22° C | 91% | 1012.7 hPa | 0 mm | - | 127 W/m² | - |
| 1777728927 | 7.22° C | 92% | 1012.8 hPa | 0 mm | - | 118 W/m² | - |
| 1777728624 | 7.22° C | 93% | 1012.8 hPa | 0.51 mm | - | 181 W/m² | - |
| 1777728321 | 7.22° C | 94% | 1012.8 hPa | 0.51 mm | - | 130 W/m² | - |
| 1777728018 | 6.67° C | 94% | 1012.9 hPa | 0.51 mm | - | 234 W/m² | - |
* Rain latest hour (hover to see other rain measurements)
** Current wind speed in m/s (hover to see current wind gust speed)